Skip Page Navigation
NASA JPL Caltech
NASA Logo - Jet Propulsion Laboratory + View the NASA Portal
+ Center for Near-Earth Object Studies
JPL Home Earth Solar System Stars & Galaxies Technology
JPL Solar System Dynamics
BODIES ORBITS EPHEMERIDES TOOLS PHYSICAL DATA DISCOVERY FAQ SITE MAP
JPL Small-Body Database Browser
Search: [ help ]  
109323 (2001 QW139)
Classification: Main-belt Asteroid          SPK-ID: 2109323
Ephemeris | Orbit Diagram | Orbital Elements | Mission Design | Physical Parameters | Discovery Circumstances | Close-Approach Data ]

[ show orbit diagram ]
Orbital Elements at Epoch 2459000.5 (2020-May-31.0) TDB
Reference: JPL 23 (heliocentric ecliptic J2000)
 Element Value Uncertainty (1-sigma)   Units 
e .1597766280748885 3.0348e-07  
a 2.523575470327673 1.3987e-08 au
q 2.120367090986217 7.6894e-07 au
i 14.58744830160956 6.8942e-06 deg
node 345.7340293337613 2.1501e-05 deg
peri 53.21277223547424 4.1805e-05 deg
M 236.3710370062492 2.5915e-05 deg
tp 2459503.352482443650
(2021-Oct-15.85248244)
0.00010675 TDB
period 1464.275759466367
4.01
1.2174e-05
3.333e-08
d
yr
n .2458553299627091 2.044e-09 deg/d
Q 2.926783849669129 1.6222e-08 au
  Orbit Determination Parameters
   # obs. used (total)      1180  
   data-arc span      13148 days (36.00 yr)  
   first obs. used      1983-05-12  
   last obs. used      2019-05-11  
   planetary ephem.      DE431  
   SB-pert. ephem.      SB431-N16  
   condition code      0  
   norm. resid. RMS      .45332  
   source      ORB  
   producer      Otto Matic  
   solution date      2020-Feb-24 03:23:32  

Additional Information
 Earth MOID = 1.15674 au 
 Jupiter MOID = 2.64651 au 
 T_jup = 3.393 
[ hide covariance matrix ]
Orbital Elements at Epoch 2457145.5 (2015-May-03.0) TDB
Reference: JPL 23 (heliocentric ecliptic J2000)
 Element Value Uncertainty (1-sigma)   Units 
e .1603567604938532 3.0171e-07  
q 2.118055113917757 7.6229e-07 au
tp 2456578.344356894139
(2013-Oct-12.84435689)
0.00010538 TDB
node 345.7744356478533 2.1509e-05 deg
peri 53.59879370393662 4.2312e-05 deg
i 14.59007971413362 6.8967e-06 deg
  Orbit Determination Parameters
   # obs. used (total)      1180  
   data-arc span      13148 days (36.00 yr)  
   first obs. used      1983-05-12  
   last obs. used      2019-05-11  
   planetary ephem.      DE431  
   SB-pert. ephem.      SB431-N16  
   condition code      0  
   norm. resid. RMS      .45332  
   source      ORB  
   producer      Otto Matic  
   solution date      2020-Feb-24 03:23:32  

Additional Information
 Jupiter MOID = 2.64651 au 
 T_jup = 3.393 
Orbit Covariance (6×6)
  e q tp node peri i
e 9.10272587486518E-14 -2.299629857593241E-13 -2.858465919536817E-11 -1.414720356142494E-12 -1.052879977096339E-11 -1.079154258794229E-12
q -2.299629857593241E-13 5.810905119254058E-13 7.205795543708584E-11 3.574631159976988E-12 2.657333638546598E-11 2.727069383946922E-12
tp -2.858465919536817E-11 7.205795543708584E-11 1.110501102312601E-8 4.491668559111644E-10 3.865984023334208E-9 3.366261901284301E-10
node -1.414720356142494E-12 3.574631159976988E-12 4.491668559111644E-10 4.626447034896731E-10 -2.613796981333824E-10 8.925704047749458E-11
peri -1.052879977096339E-11 2.657333638546598E-11 3.865984023334208E-9 -2.613796981333824E-10 1.790293030733219E-9 5.395716540453478E-11
i -1.079154258794229E-12 2.727069383946922E-12 3.366261901284301E-10 8.925704047749458E-11 5.395716540453478E-11 4.756388553460878E-11

Ephemeris | Orbit Diagram | Orbital Elements | Mission Design | Physical Parameters | Discovery Circumstances | Close-Approach Data ]

Physical Parameter Table
Parameter Symbol Value Units Sigma Reference Notes
absolute magnitude H 14.3   n/a MPO338039  
diameter diameter 5.112 km 0.037 urn:nasa:pds:neowise_diameters_albedos::2.0[mainbelt] (http://adsabs.harvard.edu/abs/2011ApJ...741...68M)  
geometric albedo albedo 0.170   0.016 urn:nasa:pds:neowise_diameters_albedos::2.0[mainbelt] (http://adsabs.harvard.edu/abs/2011ApJ...741...68M)  

109323 (2001 QW139)          Discovered 2001-Aug-22 by LINEAR at Socorro
Reference: 20051019/Numbers.arcLast Updated: 2005-10-26

[ show close-approach data ]
Ephemeris | Orbit Diagram | Orbital Elements | Mission Design | Physical Parameters | Discovery Circumstances | Close-Approach Data ]
ABOUT SSD CREDITS/AWARDS PRIVACY/COPYRIGHT GLOSSARY LINKS
FirstGov 2020-Sep-18 08:57 UT
(server date/time)  
NASA Home Page
Site Manager:   Ryan S. Park
Webmaster  Alan B. Chamberlin